Lapse_Rate
5.5 5.3 5.0 5.1 5.1 5.7 6.2 6.2 6.1 5.7 5.3 5.5 5.6 5.6 5.6 5.7 5.9 6.1 6.2 6.1 6.3 6.4 6.5 6.8 6.9 6.8 6.8 6.8 6.7 6.6 6.8 6.6 6.6 6.6 6.7 6.6 6.6 6.5 6.3 6.3 6.3 6.5 6.5 6.5
5.5 5.2 5.0 5.3 5.9 5.3 5.8 6.1 5.9 5.6 5.7 5.6 5.4 5.4 5.4 5.7 5.6 5.7 6.0 6.0 6.3 6.1 6.1 6.6 6.7 6.9 7.0 7.0 7.0 6.8 6.8 6.6 6.9 7.0 6.8 6.9 6.8 6.7 6.4 6.5 6.6 6.8 6.8 6.5
5.2 4.9 5.3 5.4 5.5 5.4 5.5 5.5 5.5 6.0 5.0 5.7 5.6 5.6 5.8 6.1 6.2 6.0 6.1 6.1 6.1 6.0 6.1 6.1 6.6 6.9 7.1 7.2 7.1 7.1 6.9 6.9 6.8 6.8 6.7 6.8 6.8 6.8 6.8 6.8 6.7 6.6 6.4 6.4
5.6 5.2 5.6 5.5 5.4 5.4 5.5 5.7 5.5 5.5 5.3 5.8 5.3 5.8 6.4 6.2 6.4 6.4 6.3 6.5 6.4 6.5 6.3 6.1 6.4 6.5 7.0 7.3 7.1 7.1 7.1 6.9 6.9 6.8 6.7 6.8 6.7 6.7 6.7 6.6 6.5 6.5 6.6 6.4
5.3 5.5 5.3 5.4 6.1 5.4 5.5 5.4 5.3 5.3 4.9 4.8 5.1 4.7 6.0 6.3 6.3 7.1 7.3 7.1 7.1 7.2 7.0 6.5 6.5 6.6 6.9 6.9 6.9 6.9 6.9 6.9 6.8 6.8 6.8 6.8 6.9 6.8 6.8 6.6 6.8 6.7 6.6 6.6
5.3 5.2 5.5 5.5 5.8 5.7 5.5 5.5 5.0 4.9 4.3 4.0 5.0 5.0 5.4 6.2 6.9 7.2 7.3 7.4 7.2 6.9 7.0 7.0 7.1 7.0 7.0 6.8 6.9 6.8 7.0 7.0 6.9 6.9 6.9 7.0 7.0 7.0 6.9 6.8 6.7 6.6 6.6 6.5
5.2 5.1 5.2 5.2 5.6 5.5 5.3 5.1 4.5 4.4 4.1 4.8 5.4 5.4 4.9 6.2 6.2 6.8 7.0 6.9 7.1 7.0 6.8 6.8 6.8 7.1 7.3 7.3 7.3 6.9 7.0 7.1 7.0 7.0 7.0 6.9 7.0 7.0 6.8 6.8 6.7 6.6 6.6 6.7
5.0 4.4 5.0 4.8 5.4 5.1 4.4 5.1 5.8 5.4 5.5 6.2 4.7 4.6 5.2 6.5 6.6 6.7 6.8 6.8 6.9 6.9 6.4 6.4 6.7 6.7 7.0 6.8 7.1 7.2 7.0 7.0 7.0 6.9 7.0 6.9 6.9 6.8 6.8 6.8 6.7 6.8 6.7 6.7
5.0 5.2 4.9 5.1 4.9 5.4 4.3 4.9 5.3 4.9 4.8 4.8 5.4 5.3 5.6 6.1 6.7 6.6 6.7 6.6 6.7 6.8 6.4 6.3 6.3 6.3 6.6 6.4 7.0 7.5 7.4 7.2 7.0 7.0 6.9 6.8 6.8 7.0 7.0 7.0 6.9 6.8 6.7 6.6
5.5 5.0 4.4 4.9 4.5 4.8 5.3 4.8 4.8 4.8 5.0 5.4 6.3 5.6 5.7 6.3 6.5 6.6 6.2 6.1 6.2 6.1 6.0 6.1 6.0 6.2 6.5 6.5 6.7 6.9 7.3 7.6 7.5 7.1 7.1 7.0 7.0 7.0 7.0 7.0 7.0 7.0 6.9 6.8
5.8 6.0 4.3 4.3 4.4 4.3 4.5 4.3 5.2 5.5 5.4 6.0 6.2 6.8 6.2 6.2 6.3 6.6 6.4 6.3 6.0 5.9 5.7 5.8 6.0 6.2 6.6 6.8 6.8 6.9 7.1 7.6 7.7 7.5 7.4 7.3 7.1 7.0 6.9 7.0 7.0 6.9 6.8 6.6
5.8 5.3 4.2 4.5 4.5 4.7 5.0 4.9 5.6 6.2 5.7 5.9 6.0 5.8 6.1 6.3 6.4 6.5 6.4 6.3 6.3 6.3 6.3 6.1 6.2 6.3 6.3 6.4 6.5 6.5 6.8 7.4 7.7 7.7 7.5 7.4 7.5 7.5 7.2 7.1 6.9 6.7 6.6 6.5
5.2 5.2 4.5 4.8 4.8 4.9 4.6 4.9 5.2 5.8 5.8 5.4 5.9 5.6 6.3 6.7 6.8 6.6 6.4 6.7 6.7 6.7 6.6 6.5 6.2 6.1 6.0 6.1 6.3 6.6 6.6 6.9 7.1 7.5 7.8 7.7 7.6 7.8 7.6 7.0 6.9 6.9 6.7 6.6
6.2 6.1 5.9 5.4 5.6 5.4 4.8 4.8 5.2 6.0 6.1 5.9 6.2 6.9 6.2 6.3 7.0 6.8 6.8 6.9 6.6 6.8 6.8 6.8 6.5 6.2 6.1 6.3 6.2 6.5 6.9 7.0 7.1 7.3 7.6 7.7 7.8 7.6 7.5 7.3 7.2 7.1 7.0 7.0
6.1 6.3 6.7 6.9 6.5 6.5 7.0 7.1 6.3 6.0 6.7 6.5 6.6 6.3 7.0 6.7 7.2 7.2 6.8 7.2 7.0 7.2 7.7 7.5 6.7 6.7 6.7 6.5 6.5 6.6 6.7 6.9 6.9 6.9 7.2 7.7 7.6 7.4 7.3 7.2 7.3 7.3 7.2 7.3
6.0 6.0 6.6 6.5 6.5 6.4 6.4 6.6 6.7 6.4 6.5 5.8 6.2 6.0 6.4 6.7 6.2 7.1 7.4 7.6 7.5 7.5 7.5 7.1 7.1 7.0 6.9 7.0 6.6 6.5 6.7 6.9 7.0 7.0 7.2 7.6 7.5 7.3 7.3 7.4 7.4 7.5 7.4 7.2
5.9 6.2 6.2 6.2 6.3 6.6 6.5 6.4 6.6 6.5 6.6 6.5 5.9 7.3 7.6 6.6 6.0 6.3 7.1 7.1 7.3 7.4 7.2 7.3 7.2 7.3 7.4 7.4 7.2 7.1 7.1 7.2 7.4 7.5 7.5 7.6 7.9 7.8 7.7 7.9 7.8 7.6 7.5 7.2
6.4 6.5 6.4 6.5 6.4 6.4 6.7 6.9 7.1 6.9 6.9 7.0 6.7 6.6 6.7 6.6 6.9 6.5 6.6 6.9 7.1 6.8 6.8 7.2 7.4 7.4 7.4 7.4 7.3 7.1 7.0 7.2 7.5 7.6 7.7 7.8 7.7 7.8 7.9 7.8 7.9 7.9 7.8 7.6
7.1 7.1 6.4 6.7 5.8 6.7 6.4 6.2 6.0 6.0 6.5 6.5 6.9 6.9 7.0 6.9 6.2 6.8 6.9 7.0 7.2 7.2 7.2 7.1 7.1 7.3 7.4 7.3 7.3 7.1 7.0 7.1 7.5 7.7 7.7 7.6 7.5 7.6 7.7 7.7 7.8 7.7 7.7 7.7
5.4 5.7 6.3 5.9 6.1 5.8 6.1 6.3 6.0 6.4 6.1 6.7 6.9 7.3 7.3 7.4 6.9 6.9 7.6 7.2 7.1 7.5 7.5 7.6 7.2 7.1 7.2 7.5 7.7 7.6 7.4 7.4 7.7 7.7 7.9 7.8 7.8 7.9 7.9 7.8 7.8 7.8 7.8 7.7
5.1 5.3 5.5 5.7 5.9 5.8 5.9 6.3 6.3 5.9 6.2 7.7 7.5 7.6 7.1 6.6 6.8 6.4 6.2 6.6 6.9 7.1 7.3 7.6 7.8 7.3 6.8 6.7 7.1 7.3 7.5 7.3 7.3 7.5 7.6 7.9 7.9 7.9 7.9 8.0 8.0 8.1 7.9 7.6
5.3 5.1 5.0 5.6 5.7 5.3 5.7 6.0 6.2 6.5 7.6 7.5 7.2 6.9 6.7 6.5 6.5 6.6 6.7 6.7 6.9 7.1 7.1 6.9 6.9 6.9 6.9 6.8 6.8 7.0 7.1 7.2 7.3 7.3 7.3 7.4 7.5 7.7 7.6 7.5 7.4 7.3 7.3 7.2
6.1 6.3 5.8 5.7 5.6 6.0 6.3 6.6 7.0 7.4 7.2 7.0 6.6 6.8 6.6 6.5 6.4 6.5 6.7 6.8 6.7 6.5 6.8 7.0 7.0 7.0 7.0 7.2 7.1 6.9 7.1 7.2 7.3 7.3 7.2 7.1 7.1 7.2 7.2 7.1 7.1 7.0 7.1 7.2
6.7 6.7 6.7 6.6 6.5 6.2 6.2 6.5 6.5 7.0 6.8 6.7 6.6 6.5 6.5 6.4 6.4 6.4 6.5 6.6 6.6 6.8 6.9 7.0 7.3 7.0 7.1 7.1 7.0 6.9 6.9 6.9 6.9 6.9 7.0 7.1 7.2 7.2 7.1 7.0 6.8 6.8 6.8 6.9
7.1 6.9 7.1 6.8 6.5 6.6 6.3 6.5 7.1 7.1 6.8 6.9 7.1 6.8 6.4 6.4 6.4 6.3 6.4 6.6 6.7 7.0 7.0 7.1 7.2 7.2 7.1 6.9 6.8 6.7 6.6 6.7 6.7 6.8 6.8 6.8 6.8 6.8 6.7 6.7 6.8 6.8 6.8 6.9
7.0 7.1 7.0 6.8 6.9 6.8 6.8 7.0 7.2 6.8 6.7 6.6 6.8 7.0 7.0 6.8 6.7 6.6 6.5 6.5 6.7 6.7 6.8 6.9 6.9 6.9 6.8 6.8 6.9 6.8 6.7 6.6 6.6 6.5 6.4 6.4 6.3 6.3 6.4 6.4 6.5 6.7 6.8 6.8
Wind_Speed
3 5 12 17 21 16 17 14 11 9 8 7 17 18 20 20 11 10 11 13 14 16 15 17 18 18 17 17 17 17 17 15 11 9 9 9 9 8 8 12 14 14 14 14
5 7 14 14 13 11 14 15 14 8 5 5 11 18 16 18 21 17 14 13 15 13 14 16 17 18 19 19 19 16 16 16 14 10 9 9 9 8 9 12 13 15 15 14
10 13 6 16 14 13 12 14 11 7 4 8 9 16 21 22 20 20 17 14 14 13 15 15 17 20 18 18 18 18 18 17 16 15 10 9 8 9 8 8 8 14 17 17
3 9 13 15 17 16 8 2 3 8 4 6 7 9 12 19 23 20 21 19 18 16 14 15 17 18 19 19 17 18 17 17 16 17 12 14 11 10 9 10 8 11 21 20
6 14 17 14 13 17 6 9 8 5 2 5 8 5 7 4 14 19 20 21 20 17 17 18 16 18 19 16 17 16 17 18 17 16 16 12 12 10 9 10 12 12 13 17
9 14 14 10 13 8 17 13 10 5 2 5 13 11 11 13 13 14 18 20 20 18 17 17 17 16 15 15 15 15 17 17 17 17 18 18 16 14 11 10 9 8 8 8
9 13 4 16 13 8 1 11 3 2 4 6 3 12 16 9 11 9 13 16 17 17 16 16 15 15 15 17 18 16 18 19 19 19 18 19 18 17 16 13 9 10 8 8
13 7 13 19 8 13 12 6 5 7 6 3 2 9 4 9 7 14 11 9 8 15 14 12 14 14 15 16 16 16 15 17 17 18 19 17 18 12 12 13 10 10 9 10
14 6 12 17 6 20 7 5 1 2 2 1 6 8 10 12 14 8 11 7 8 7 8 10 10 12 12 13 15 16 16 15 15 18 15 16 15 16 13 15 13 10 11 9
13 7 10 6 9 7 12 13 4 4 5 6 6 7 8 7 6 8 8 10 8 8 8 7 8 8 8 9 10 12 15 17 17 17 16 15 16 15 14 14 13 10 9 8
18 7 9 8 11 14 5 13 6 4 4 3 4 5 3 3 2 3 2 3 3 4 5 5 5 5 5 5 7 9 11 12 13 15 14 13 13 13 12 11 11 7 6 9
4 6 11 20 3 9 15 14 15 6 6 8 3 9 7 5 4 2 3 3 0 1 3 4 4 4 5 6 7 8 7 8 8 7 8 9 9 9 9 9 7 7 9 8
11 7 9 7 7 7 22 17 19 11 1 6 6 8 12 7 3 5 4 6 1 2 2 2 2 3 5 6 7 8 8 8 7 7 8 8 9 9 9 8 8 8 8 9
7 7 10 12 7 14 14 21 17 18 6 12 14 22 7 6 4 3 2 3 5 5 4 5 5 4 5 4 6 6 6 5 5 6 6 7 7 8 8 8 7 8 9 10
8 6 9 7 10 17 17 19 21 22 28 15 21 22 18 13 10 10 9 11 8 9 8 8 7 4 4 4 5 6 6 7 7 7 7 7 5 5 5 7 8 7 9 9
11 5 9 2 4 12 11 16 22 28 29 22 22 23 11 12 11 11 12 12 11 11 9 5 4 3 3 4 6 6 8 6 6 8 8 6 5 4 4 5 6 6 6 8
12 5 4 4 6 6 1 23 23 25 25 25 22 31 8 10 8 8 11 12 13 9 8 6 4 4 3 5 6 7 7 6 7 7 5 5 6 6 5 5 6 7 9 9
8 6 3 3 4 5 17 14 22 25 23 26 28 25 9 8 9 9 12 13 10 11 9 4 3 4 1 3 4 5 5 6 6 6 5 5 5 5 6 6 6 7 8 11
14 8 5 6 11 4 14 10 12 19 22 22 24 25 19 14 3 14 12 12 13 7 2 2 4 6 6 2 3 4 4 4 5 7 5 5 6 5 5 7 8 6 5 5
4 12 4 5 7 12 9 15 8 8 19 15 21 20 15 9 10 16 13 3 5 5 5 5 7 7 6 5 2 5 5 5 6 5 5 4 6 7 8 7 7 5 4 3
7 2 15 6 6 6 3 8 14 11 5 5 14 17 14 13 17 1 6 8 6 5 6 5 4 5 8 6 2 2 2 4 3 2 4 4 4 4 5 5 3 5 5 6
11 11 7 6 8 19 6 8 18 9 3 2 1 1 4 5 8 7 7 6 6 6 5 6 5 5 5 7 5 4 4 3 1 3 4 4 4 3 3 6 5 5 6 7
9 10 8 13 11 2 8 6 6 3 3 4 3 3 3 7 7 8 7 5 6 6 5 6 6 6 6 5 5 4 4 3 2 3 2 2 3 3 4 6 7 6 7 7
3 8 4 4 8 5 8 2 0 2 3 3 1 3 4 7 8 6 6 5 5 4 5 5 6 6 5 5 5 4 4 3 2 2 3 3 3 2 2 3 5 6 7 7
3 8 6 4 3 3 0 5 7 6 5 7 4 3 8 11 8 7 6 5 5 5 4 4 5 4 5 6 6 7 6 4 3 2 3 2 2 3 3 4 5 6 6 8
5 5 9 10 12 9 7 11 10 10 8 7 7 5 6 6 8 7 7 4 4 5 4 4 5 4 5 5 6 6 5 4 3 2 1 1 1 2 2 3 4 6 6 9
Wind_Direction
201 172 200 186 197 175 179 193 202 216 141 197 222 237 242 242 213 233 248 243 221 223 208 204 204 202 203 199 195 197 193 195 189 197 195 199 204 201 208 209 206 199 198 192
146 205 184 198 206 180 188 199 224 182 166 226 245 247 243 244 241 246 243 241 236 231 215 201 202 202 204 202 201 200 197 196 194 194 200 206 206 204 211 205 208 196 201 196
193 165 219 190 190 178 193 199 200 192 198 248 288 271 250 240 240 241 234 243 251 238 226 211 205 203 205 208 204 205 203 201 200 200 198 203 211 210 204 204 203 202 202 201
216 160 172 178 184 182 171 201 111 128 182 250 176 278 248 226 225 222 222 223 230 236 229 224 208 211 207 208 205 209 207 207 203 198 201 202 204 204 210 207 200 207 203 201
155 168 166 189 169 181 116 112 97 98 104 14 211 252 250 304 227 226 220 220 219 210 210 220 213 211 214 206 207 209 209 211 207 203 204 204 208 212 208 211 205 208 210 208
127 169 172 171 144 122 128 112 73 59 24 247 233 218 263 242 237 243 241 227 226 210 208 213 211 206 210 211 208 208 210 213 210 208 206 211 211 212 210 214 201 203 201 201
140 166 145 144 110 125 152 144 108 188 197 235 21 222 252 268 280 252 252 239 223 221 212 212 209 203 207 204 208 208 207 211 210 212 211 213 214 212 219 216 208 200 202 198
162 191 180 177 175 157 177 198 177 207 210 240 87 233 233 272 291 272 248 274 285 221 221 215 208 206 205 210 204 204 211 217 211 211 215 213 215 219 217 216 210 214 209 209
184 141 165 182 140 147 171 194 81 83 69 294 215 252 251 246 259 259 245 249 245 251 240 238 227 223 218 211 210 201 204 213 216 215 215 215 218 216 216 217 215 211 209 206
171 122 181 155 137 194 180 149 147 216 207 240 235 249 250 259 274 230 232 240 265 261 242 239 248 234 227 231 219 219 212 208 210 215 213 213 213 214 218 220 219 215 201 158
165 124 153 150 199 176 179 183 213 191 232 243 285 250 79 275 330 301 186 165 300 324 307 287 270 258 261 250 235 228 226 222 215 213 213 212 210 208 219 221 219 191 153 163
123 112 151 185 112 215 206 184 187 192 193 234 324 255 146 143 156 171 136 149 204 256 319 297 287 296 274 260 248 233 238 233 228 206 202 214 206 194 208 213 189 164 169 171
159 127 121 152 264 210 210 206 208 227 346 200 195 262 183 207 184 216 229 313 125 106 18 321 282 261 257 246 236 231 224 216 213 215 204 202 203 208 189 185 181 172 165 166
117 155 168 186 183 155 195 208 208 208 207 209 217 242 189 187 202 157 288 299 313 324 336 308 283 266 256 253 254 244 222 220 207 206 213 213 206 210 200 198 173 169 168 168
164 155 198 191 175 176 195 200 194 207 226 211 234 240 236 233 251 276 298 297 274 274 267 258 258 259 263 244 229 234 231 204 193 209 215 218 206 201 173 162 166 160 170 172
178 166 173 92 142 182 194 193 201 212 225 234 252 267 246 259 266 261 274 282 285 282 282 270 273 284 265 242 241 226 226 209 211 217 211 203 184 186 175 151 146 147 148 154
164 118 125 174 146 112 354 212 205 217 223 223 237 243 231 244 255 253 270 279 285 292 282 288 307 289 209 226 223 229 227 212 210 217 200 181 167 170 167 160 158 165 169 162
137 116 96 119 116 198 241 207 209 214 222 223 242 255 249 258 267 258 254 263 264 272 279 306 317 297 268 223 218 228 204 203 205 221 200 175 171 179 164 166 189 185 180 178
193 156 149 156 199 311 264 197 211 207 239 225 234 248 249 252 184 253 232 242 240 256 61 320 309 307 306 284 181 170 159 198 220 222 200 181 186 176 177 186 185 183 180 183
206 196 169 153 196 216 238 170 166 153 262 220 225 240 236 209 227 250 243 254 95 87 82 35 347 333 331 7 57 155 173 195 244 249 231 193 187 178 186 191 182 170 168 172
171 143 204 182 223 264 161 152 144 188 260 234 216 231 233 222 229 40 103 84 85 74 59 35 43 21 350 337 336 218 179 216 240 187 166 162 184 184 176 160 146 158 157 145
169 172 193 202 223 253 152 152 187 209 74 76 117 175 242 215 112 120 120 105 100 94 68 36 46 50 34 4 346 357 342 1 93 140 152 161 154 152 155 154 136 149 155 165
191 198 168 189 211 168 179 194 217 87 119 176 202 190 177 138 148 154 125 98 75 72 62 38 47 33 25 24 15 16 359 337 99 124 123 113 136 160 162 166 164 163 171 181
234 202 195 125 206 185 171 158 28 137 165 137 115 121 161 147 126 115 110 107 97 58 56 40 38 25 16 6 31 19 350 8 71 87 112 131 149 155 176 188 182 187 189 194
143 138 158 267 94 59 242 201 183 157 130 125 94 95 124 119 114 139 117 93 83 70 51 40 54 41 24 9 21 14 6 5 32 59 79 102 146 180 190 221 212 216 220 214
188 166 194 223 167 199 194 174 146 156 158 142 130 109 55 94 124 122 102 97 97 86 56 46 45 38 16 26 37 20 9 10 11 20 57 88 172 151 218 228 244 240 268 242